Location: Del Oro Observatory
(38.3044°N, 104.8119°W)
Time: 18:52:47
(UTC-06:00)

Cosmos 1602 Rocket - Visible Passes

Search period start: 26 July 2017 00:00
Search period end: 05 August 2017 00:00
Orbit: 605 x 633 km, 82.5° (Epoch: 26 July)

Date Brightness Start Highest point End Pass type
(mag) Time Alt. Az. Time Alt. Az. Time Alt. Az.
26 Jul 6.4 00:58:52 10° ENE 00:59:04 10° ENE 00:59:04 10° ENE visible
26 Jul 4.9 02:33:32 10° NNW 02:36:12 35° NNW 02:36:12 35° NNW visible
27 Jul 6.0 01:13:58 10° NNE 01:15:58 17° NE 01:15:58 17° NE visible
27 Jul 5.4 02:51:09 10° NNW 02:53:06 22° NW 02:53:06 22° NW visible
28 Jul 5.6 01:30:32 10° N 01:32:53 26° NE 01:32:53 26° NE visible
28 Jul 6.0 03:09:16 10° NW 03:10:01 13° NW 03:10:01 13° NW visible
29 Jul 5.4 01:47:32 10° N 01:49:49 30° N 01:49:49 30° N visible
30 Jul 5.5 02:04:50 10° NNW 02:06:46 25° NNW 02:06:46 25° NNW visible
31 Jul 6.1 00:45:11 10° NNE 00:46:36 16° NE 00:46:36 16° NE visible
31 Jul 5.9 02:22:28 10° NNW 02:23:44 17° NW 02:23:44 17° NW visible
01 Aug 5.8 01:01:48 10° N 01:03:35 21° NNE 01:03:35 21° NNE visible
01 Aug 6.3 02:40:40 10° NW 02:40:42 10° NW 02:40:42 10° NW visible
02 Aug 5.8 01:18:49 10° N 01:20:34 23° N 01:20:34 23° N visible
03 Aug 5.9 01:36:08 10° NNW 01:37:34 20° NNW 01:37:34 20° NNW visible
04 Aug 6.2 00:16:24 10° NNE 00:17:27 14° NE 00:17:27 14° NE visible
04 Aug 6.2 01:53:48 10° NNW 01:54:35 14° NW 01:54:35 14° NW visible
